Location: Isle of Man Observatory
(54.1776°N, 4.6264°W)
Time: 10:39:37
(UTC+02:00)

N. Korean satellite - Visible Passes

Search period start: 07 October 2022 00:00
Search period end: 17 October 2022 00:00
Orbit: 425 x 467 km, 97.3° (Epoch: 06 October)

Date Brightness Start Highest point End Pass type
(mag) Time Alt. Az. Time Alt. Az. Time Alt. Az.
07 Oct 6.3 07:52:31 10° NNE 07:55:48 89° WNW 07:59:04 10° SSW visible
08 Oct 8.3 07:16:33 10° NNE 07:19:34 33° E 07:22:35 10° SSE visible
09 Oct 9.7 06:41:13 10° NE 06:43:06 14° E 06:44:59 10° SE visible
10 Oct 7.0 07:36:34 10° NNE 07:39:49 58° ESE 07:43:03 10° S visible
11 Oct 9.0 07:00:39 10° NE 07:03:19 23° E 07:05:59 10° SSE visible
12 Oct 6.3 07:56:27 10° NNE 07:59:45 81° WNW 08:03:02 10° SSW visible
13 Oct 8.0 07:20:08 10° NNE 07:23:13 37° E 07:26:17 10° SSE visible
14 Oct 9.6 06:44:22 10° NE 06:46:26 16° E 06:48:31 10° SE visible
15 Oct 6.9 07:39:31 10° NNE 07:42:47 63° ESE 07:46:04 10° S visible
16 Oct 8.9 07:03:13 10° NE 07:05:59 24° E 07:08:44 10° SSE visible
